Flag for Chile Weather past 2 weeks in Antofagasta, Chile

Now
59 °F

Partly sunny.


Feels Like: 56 °F
Forecast: 58 / 70 °F
Wind: 14 mph from Southwest

Location: Antofagasta Airport

Current Time: Sep 1, 2014 at 3:11:17 PM

Latest Report: Sep 1, 2014 at 2:00 PM


Visibility: N/A

Pressure: 29.95 "Hg

Humidity: 72%

Dew point: 50 °F

Location of AntofagastaLocation

Historic Weather in Antofagasta — Graph

°F

Antofagasta temperature yesterday

Maximum temperature yesterday: 61 °F (at 3:00 PM)
Minimum temperature yesterday: 52 °F (at 12:00 AM)
Average temperature yesterday: 56 °F

Past Weeks' High & Low Weather Summary

 TemperatureHumidityPressure
High68 °F (Aug 28, 1:00 PM)94% (Aug 31, 5:00 AM)30.12 "Hg (Aug 31, 5:00 AM)
Low50 °F (Aug 28, 1:00 AM)46% (Aug 25, 1:00 PM)29.83 "Hg (Aug 17, 4:00 PM)
Average57 °F74%29.99 "Hg
* Reported Aug 17 1:00 PM — Sep 1 1:00 PM, Antofagasta, Weather by CustomWeather, © 2014

Note: Actual official high and low records may vary slightly from our data, if they occured in-between our weather recording intervals... More about our weather records

Advertising

Antofagasta weather history for previous 24 hours

 ConditionsComfort  
Time TempWeatherWind HumidityBarometerVisibility
1:00 PM
Sep 1
59 °FPartly sunny.16 mph72%29.98 "HgN/A
12:00 PM59 °FPartly sunny.15 mph72%30.01 "HgN/A
11:00 AM57 °FBroken clouds.13 mph77%30.04 "HgN/A
10:00 AM57 °FPartly sunny.14 mph77%30.01 "HgN/A
9:00 AM57 °FPartly sunny.13 mph72%30.01 "HgN/A
8:00 AM55 °FScattered clouds.6 mph77%29.98 "HgN/A
7:00 AM55 °FPartly sunny.7 mph82%29.98 "HgN/A
6:00 AM55 °FPartly sunny.2 mph82%29.98 "HgN/A
5:00 AM55 °FPassing clouds.2 mph82%29.98 "HgN/A
4:00 AM55 °FPassing clouds.6 mph82%29.98 "HgN/A
3:00 AM55 °FPassing clouds.7 mph82%30.01 "HgN/A
2:00 AM55 °FPassing clouds.2 mph82%29.98 "HgN/A
1:00 AM55 °FPassing clouds.1 mph82%29.98 "HgN/A
12:00 AM55 °FPassing clouds.5 mph82%29.98 "HgN/A
11:00 PM
Aug 31
55 °FPassing clouds.9 mph82%30.01 "HgN/A
10:00 PM55 °FPassing clouds.5 mph82%29.98 "HgN/A
9:00 PM55 °FPassing clouds.7 mph82%29.95 "HgN/A
8:00 PM55 °FPassing clouds.10 mph82%29.95 "HgN/A
7:00 PM57 °FPassing clouds.8 mph77%29.92 "HgN/A
6:00 PM57 °FPassing clouds.12 mph77%29.92 "HgN/A
5:00 PM59 °FPartly sunny.14 mph72%29.95 "HgN/A
4:00 PM59 °FPartly sunny.15 mph72%29.95 "HgN/A
3:00 PM61 °FScattered clouds.13 mph68%29.95 "HgN/A
Weather by CustomWeather, © 2014

See weather overviewHow to use our weather pages